This is the latest recevied weather packets stored in our database for station/object W7BL. If no packets are shown the sender has not sent any weather packets the latest 10 day(s).
| Time | Temp. | Humidity | Pressure | Rain* | Wind** | Luminosity | Snow |
|---|---|---|---|---|---|---|---|
| 1777275889 | 1.67° C | 59% | - | 0 mm | - | - | - |
| 1777275587 | 1.67° C | 59% | - | 0 mm | - | - | - |
| 1777275284 | 1.67° C | 59% | - | 0 mm | - | - | - |
| 1777274978 | 1.67° C | 60% | - | 0 mm | - | - | - |
| 1777274676 | 2.22° C | 57% | - | 0 mm | - | - | - |
| 1777274373 | 2.78° C | 54% | - | 0 mm | - | - | - |
| 1777274072 | 2.22° C | 58% | - | 0 mm | - | - | - |
| 1777273770 | 2.78° C | 56% | - | 0 mm | - | - | - |
| 1777273468 | 2.78° C | 56% | - | 0 mm | - | - | - |
| 1777273165 | 2.78° C | 53% | - | 0 mm | - | - | - |
| 1777272862 | 2.78° C | 53% | - | 0 mm | - | - | - |
| 1777272560 | 2.78° C | 53% | - | 0 mm | - | - | - |
| 1777272258 | 3.89° C | 50% | - | 0 mm | - | - | - |
| 1777271954 | 3.33° C | 52% | - | 0 mm | - | - | - |
| 1777271650 | 2.78° C | 52% | - | 0 mm | - | - | - |
| 1777271347 | 2.78° C | 54% | - | 0 mm | - | - | - |
| 1777271043 | 2.78° C | 55% | - | 0 mm | - | - | - |
| 1777270738 | 2.78° C | 53% | - | 0 mm | - | - | - |
| 1777270435 | 2.78° C | 55% | - | 0 mm | - | - | - |
| 1777270132 | 3.33° C | 58% | - | 0 mm | - | - | - |
| 1777269829 | 3.89° C | 50% | - | 0 mm | - | - | - |
| 1777269526 | 3.89° C | 51% | - | 0 mm | - | - | - |
| 1777269224 | 3.89° C | 58% | - | 0 mm | - | - | - |
| 1777268920 | 3.89° C | 51% | - | 0 mm | - | - | - |
| 1777268618 | 3.89° C | 49% | - | 0 mm | - | - | - |
* Rain latest hour (hover to see other rain measurements)
** Current wind speed in m/s (hover to see current wind gust speed)